Temperature
16 16 16 16 16 16 16 16 16 17 17 16 16 16 16 15 15 15 15 15 16 16 16 16 15 15 15 15 15 15 15 15 15 15 15 15 15 15
15 15 15 15 15 15 15 15 16 16 16 16 16 16 15 15 15 15 15 15 15 15 15 15 15 15 15 15 15 15 15 15 15 15 15 15 15 15
15 15 15 15 15 15 15 15 15 15 15 16 15 15 15 15 15 15 15 15 15 15 15 15 15 15 15 15 15 15 15 15 15 15 15 15 15 15
15 15 15 15 14 14 14 14 15 14 15 15 15 15 15 14 14 14 14 14 14 15 15 15 15 15 14 14 14 14 14 14 14 14 14 14 14 15
14 14 14 14 14 14 14 14 14 14 14 14 14 14 14 14 14 14 14 14 14 14 14 14 14 14 14 14 14 14 14 14 14 14 14 14 14 14
14 14 14 14 14 14 14 14 14 14 14 14 14 14 14 14 14 14 14 14 14 14 14 14 14 14 14 14 14 14 14 14 14 14 14 14 14 14
14 14 14 14 14 14 14 14 13 13 14 14 14 14 14 14 14 14 14 14 14 14 13 13 13 13 13 13 13 13 13 13 13 13 13 13 13 13
14 14 14 14 14 14 14 13 13 13 13 13 13 13 13 13 13 13 13 13 13 13 13 13 13 13 13 13 13 13 13 13 13 13 13 13 13 13
14 13 13 13 13 13 13 13 13 13 13 13 13 13 13 12 12 12 12 12 13 13 12 13 13 13 13 13 13 13 13 13 13 13 13 13 13 13
13 13 13 13 13 13 13 13 13 13 13 12 12 12 12 12 12 12 12 12 12 12 12 12 13 13 13 12 12 12 13 12 12 12 12 12 12 12
13 13 13 13 13 13 12 12 12 12 12 12 12 12 12 12 12 12 12 12 12 12 12 12 12 12 12 12 12 12 12 12 12 12 12 12 12 12
13 13 13 13 12 12 12 12 12 12 12 12 12 12 12 12 12 12 12 12 12 12 12 12 12 12 12 12 12 12 12 12 12 12 12 12 12 12
13 13 12 12 12 12 12 12 12 12 11 12 12 12 12 12 12 11 11 11 11 11 12 12 11 11 12 12 12 11 11 11 11 11 11 12 12 11
12 12 12 12 12 12 12 12 12 12 11 11 11 12 12 11 11 11 11 11 11 11 11 11 11 11 11 11 11 11 11 11 11 11 11 11 11 11
12 12 12 12 12 11 11 11 11 11 11 11 11 11 11 11 11 11 11 11 11 11 11 11 11 11 10 11 11 11 11 11 11 11 11 11 11 11
11 11 11 11 11 11 11 11 11 11 11 11 11 11 11 11 11 11 11 11 11 11 11 11 10 10 10 10 10 10 10 10 10 10 10 10 10 11
11 11 11 11 11 11 11 11 10 10 10 10 10 10 10 10 10 10 10 10 10 10 11 11 10 10 10 10 10 10 10 10 10 10 10 10 10 10
11 10 11 11 11 10 10 10 10 10 10 10 10 10 10 10 10 10 10 10 10 10 10 10 10 10 10 10 10 10 10 10 10 10 10 10 10 10
10 10 10 10 10 10 10 10 10 10 9 9 9 9 9 9 9 9 10 10 10 10 10 10 9 10 10 10 10 10 10 10 9 9 9 10 10 10
10 10 10 10 10 10 10 10 10 9 9 9 9 9 9 9 9 9 9 9 9 9 9 9 9 9 9 9 10 10 10 9 9 9 9 9 9 9
10 10 10 10 10 9 9 9 9 9 9 9 9 8 8 8 9 8 9 8 8 9 9 9 9 9 9 9 9 9 9 9 9 9 9 9 9 9
9 9 9 9 9 9 9 9 9 8 8 8 8 8 8 8 8 8 8 8 8 8 8 8 8 8 8 8 8 9 9 9 9 9 9 9 9 9
9 9 9 9 9 9 9 8 8 8 8 8 8 8 8 8 8 8 8 8 8 8 8 8 8 8 8 8 8 8 9 9 9 9 9 9 9 9
Wind_Speed
3 3 4 3 3 4 4 4 5 5 4 3 4 3 3 3 2 5 5 5 6 6 6 6 6 7 8 9 9 9 8 9 9 9 9 10 10 11
3 3 4 4 3 4 4 4 4 5 6 4 4 4 3 4 3 5 6 6 9 8 7 6 6 6 7 8 9 9 9 10 10 9 9 9 9 10
4 3 3 4 4 4 4 4 4 4 6 6 5 4 4 5 3 5 6 6 6 9 8 7 7 7 7 7 8 8 9 9 10 10 10 10 9 9
4 4 4 3 3 4 4 4 4 5 6 7 5 4 4 5 5 6 6 5 5 5 7 8 8 8 8 9 9 9 9 9 9 10 10 10 10 10
5 4 4 4 4 3 4 4 4 4 5 6 6 4 4 4 4 5 6 5 6 6 9 10 9 9 9 9 9 9 9 9 9 9 9 9 9 9
5 4 4 4 4 4 4 4 5 5 5 6 6 5 4 4 4 4 5 4 5 5 5 6 8 11 11 10 10 9 9 9 9 9 9 9 9 8
5 5 4 3 3 4 4 4 5 5 5 5 6 5 5 4 4 5 5 5 6 5 5 6 6 7 8 11 11 9 8 9 9 9 9 9 9 9
5 4 5 4 3 4 5 5 6 6 6 6 6 6 6 6 5 6 6 6 6 4 5 6 6 6 6 6 6 8 9 9 8 9 9 10 10 10
4 4 4 3 4 4 5 7 7 7 8 7 7 7 7 6 7 8 6 7 7 6 6 7 6 6 5 3 7 8 9 9 8 8 8 9 9 10
5 4 4 4 3 3 5 5 5 6 6 7 6 7 7 6 6 8 8 8 7 6 6 7 6 6 5 3 7 9 9 9 8 8 8 8 9 10
5 4 4 4 2 4 5 6 6 6 6 6 7 7 7 7 7 7 7 7 7 6 5 6 6 6 5 5 5 9 10 10 10 10 10 9 9 10
4 4 3 3 3 4 6 6 7 7 7 7 7 8 8 8 8 7 7 7 7 6 4 5 6 5 6 4 4 4 7 9 12 12 11 11 10 9
5 4 2 2 3 5 7 6 7 8 8 7 7 6 6 5 6 6 6 7 7 7 5 4 5 5 6 5 5 5 6 5 6 8 10 12 12 10
5 4 2 1 4 6 6 5 6 8 7 6 6 6 5 5 5 6 6 7 7 8 8 6 6 6 7 7 6 5 6 6 6 6 6 8 11 13
4 2 3 4 6 6 6 7 6 5 5 6 6 6 6 6 6 5 5 6 7 7 6 7 7 7 7 7 7 6 7 6 6 5 5 5 6 7
4 4 6 8 7 5 5 5 4 4 5 5 6 6 6 5 5 5 5 5 6 5 5 6 7 7 8 8 8 8 7 6 6 5 5 5 6 6
4 4 4 4 4 4 4 4 4 4 4 4 5 5 6 5 5 5 5 6 6 6 5 4 5 6 7 7 8 8 7 7 6 5 5 6 5 5
5 5 4 5 5 5 4 4 4 4 4 5 5 5 6 6 5 5 5 6 6 6 6 5 5 5 6 6 7 8 7 6 5 5 6 6 5 4
6 5 5 5 5 5 5 4 4 4 4 5 5 5 5 5 5 5 6 6 6 6 6 5 5 6 7 7 5 5 6 6 5 5 6 6 6 5
5 5 5 5 5 5 5 4 4 4 4 4 5 5 5 5 5 5 5 6 6 6 6 6 5 6 7 7 5 5 6 7 6 6 6 5 5 3
4 4 4 4 4 4 4 4 4 4 4 4 4 5 5 5 5 6 6 6 7 7 7 6 5 6 6 5 5 5 4 5 5 5 5 5 5 5
4 4 4 5 4 4 4 4 5 4 4 4 4 4 5 5 5 6 6 6 6 6 7 6 5 4 4 4 5 5 5 4 4 5 5 5 5 5
5 5 5 5 4 4 4 4 6 5 5 5 5 5 5 5 5 5 5 6 6 6 6 6 5 4 4 4 4 4 4 4 3 3 3 4 5 5
Wind_Direction
290 284 282 282 279 280 276 277 281 283 279 258 259 263 260 254 233 255 256 213 223 233 235 241 243 244 244 242 241 244 247 246 244 246 247 243 243 243
288 296 288 288 288 279 276 275 275 279 284 284 277 272 276 270 233 263 260 220 221 222 224 233 240 246 246 243 242 244 245 243 241 240 241 237 240 246
280 276 272 286 286 283 281 281 281 277 275 286 286 284 274 277 274 269 261 253 238 207 212 227 238 247 250 248 246 246 246 244 242 239 240 241 241 244
270 270 267 265 275 286 291 285 283 280 275 282 284 280 272 266 270 271 268 260 264 203 205 219 232 239 243 246 246 245 243 244 245 244 244 241 239 239
266 264 264 265 274 283 284 286 286 282 278 278 282 281 274 271 273 273 273 269 263 228 210 215 224 231 235 239 242 239 239 240 243 244 245 242 238 236
262 263 262 259 267 276 275 281 287 287 282 279 281 279 275 275 271 274 273 266 270 266 252 241 223 220 225 229 233 234 235 236 239 240 242 242 242 239
256 256 258 257 282 286 290 295 292 286 286 282 281 284 281 286 282 282 279 278 270 269 268 257 239 241 231 222 221 224 229 232 233 234 235 237 240 240
257 259 257 237 238 244 262 278 284 281 287 287 280 283 286 285 290 283 283 282 282 276 276 274 264 259 254 245 203 203 217 223 227 230 233 235 236 235
269 272 278 278 262 269 249 238 251 251 259 271 280 284 286 289 288 282 278 279 283 288 282 277 269 265 260 236 169 191 207 217 223 229 231 234 236 235
269 270 273 283 287 290 278 275 273 269 262 265 276 278 282 288 281 275 278 272 270 263 261 271 274 271 272 251 175 190 204 215 224 231 235 235 236 237
262 264 263 260 289 290 272 274 279 280 255 247 260 265 271 272 275 273 273 274 277 279 262 268 275 278 271 256 209 196 206 212 219 227 231 234 237 236
256 248 226 250 278 271 266 272 276 284 289 281 261 251 252 243 237 253 265 269 275 279 272 267 273 282 276 259 241 222 222 217 216 221 226 227 228 236
265 259 241 185 249 261 266 271 278 285 281 279 277 271 264 258 251 251 259 265 268 272 277 272 270 270 270 272 267 259 254 249 234 231 223 218 217 227
272 272 265 197 247 256 262 272 275 274 274 278 281 284 285 284 278 272 265 264 265 269 276 275 269 266 268 269 271 264 258 258 256 253 247 212 211 220
278 299 289 252 254 249 239 247 257 267 276 280 284 289 292 290 284 276 271 264 264 262 261 262 261 263 262 263 267 269 270 266 257 252 252 246 235 226
270 244 224 232 242 256 256 249 258 273 280 283 290 296 299 290 281 283 285 283 277 269 258 255 256 256 257 259 260 263 261 259 252 250 251 253 241 233
284 270 270 268 263 265 267 270 270 266 271 280 286 295 297 297 296 295 289 285 283 281 277 269 257 249 254 261 263 262 261 260 255 247 249 251 248 239
272 265 272 274 275 278 277 274 272 275 283 286 285 288 292 295 295 295 293 288 284 281 284 287 282 269 256 251 244 257 259 259 255 242 246 249 249 244
255 266 271 274 276 278 276 278 284 288 289 286 289 291 294 297 296 292 290 290 294 291 287 287 282 276 272 269 249 232 253 259 255 246 244 246 251 245
257 269 273 276 278 279 281 281 282 279 276 282 291 296 297 296 292 291 290 295 296 293 290 288 285 282 276 274 272 266 236 244 249 246 244 244 249 242
264 273 280 282 280 281 285 287 287 281 285 288 291 294 297 296 294 293 292 288 288 291 292 291 291 280 281 281 271 267 258 229 247 251 244 242 246 241
267 271 273 275 278 282 283 282 280 277 277 277 292 294 293 293 295 296 298 295 291 292 295 296 298 282 275 273 277 280 277 263 233 224 242 259 257 254
263 263 266 267 264 265 271 276 279 283 286 290 295 297 300 300 300 297 297 297 294 292 291 294 294 287 281 275 273 275 278 269 255 244 250 221 214 231
Height
1526 1525 1524 1525 1524 1524 1523 1523 1523 1521 1520 1520 1520 1519 1518 1517 1516 1515 1515 1514 1514 1514 1514 1514 1514 1515 1515 1515 1516 1516 1516 1516 1517 1517 1518 1518 1519 1520
1522 1522 1521 1522 1521 1521 1521 1520 1520 1519 1518 1517 1517 1516 1515 1515 1513 1512 1512 1511 1510 1510 1510 1510 1510 1510 1511 1511 1511 1511 1511 1512 1512 1513 1513 1513 1514 1515
1520 1519 1519 1518 1518 1518 1518 1517 1517 1516 1515 1515 1514 1513 1512 1511 1510 1509 1509 1508 1507 1507 1506 1506 1506 1506 1506 1506 1506 1506 1507 1507 1507 1508 1508 1509 1509 1510
1517 1516 1516 1516 1515 1515 1515 1515 1514 1513 1513 1511 1511 1510 1509 1508 1507 1506 1506 1505 1504 1503 1502 1502 1502 1502 1502 1502 1502 1502 1502 1502 1502 1503 1503 1504 1505 1505
1514 1513 1513 1513 1513 1513 1512 1512 1511 1511 1510 1509 1508 1507 1506 1505 1504 1503 1502 1501 1501 1500 1499 1498 1498 1498 1497 1497 1497 1497 1497 1497 1498 1498 1499 1499 1500 1500
1510 1510 1510 1510 1509 1509 1509 1508 1508 1507 1507 1506 1505 1504 1503 1502 1501 1500 1499 1498 1498 1497 1495 1494 1494 1493 1493 1492 1492 1492 1492 1493 1493 1494 1494 1494 1495 1495
1507 1507 1507 1506 1506 1505 1506 1505 1505 1504 1504 1503 1502 1501 1500 1499 1498 1497 1496 1495 1493 1493 1492 1491 1490 1490 1489 1488 1488 1488 1488 1488 1488 1489 1489 1490 1490 1490
1503 1503 1503 1502 1502 1502 1501 1501 1501 1500 1500 1499 1498 1497 1496 1495 1494 1494 1493 1492 1490 1490 1488 1487 1487 1486 1486 1485 1484 1484 1484 1484 1484 1484 1484 1485 1485 1485
1500 1499 1499 1500 1499 1498 1497 1497 1497 1497 1496 1496 1495 1493 1493 1492 1491 1490 1489 1487 1486 1485 1485 1483 1483 1482 1482 1481 1480 1479 1479 1479 1479 1479 1480 1480 1480 1481
1497 1496 1496 1496 1495 1495 1494 1494 1494 1493 1493 1492 1491 1490 1489 1487 1486 1486 1485 1484 1482 1481 1481 1480 1479 1478 1478 1477 1476 1475 1475 1475 1475 1475 1475 1475 1476 1476
1494 1493 1493 1493 1492 1492 1491 1491 1490 1490 1489 1488 1487 1485 1484 1483 1483 1482 1482 1481 1479 1478 1477 1476 1475 1474 1473 1472 1472 1471 1471 1471 1470 1470 1470 1471 1471 1471
1491 1490 1490 1489 1489 1488 1488 1487 1487 1486 1485 1484 1483 1481 1480 1479 1479 1478 1477 1476 1475 1474 1473 1472 1471 1471 1469 1469 1468 1467 1467 1466 1466 1466 1466 1466 1466 1466
1488 1488 1487 1486 1485 1485 1484 1483 1482 1482 1481 1480 1479 1478 1477 1476 1475 1474 1473 1472 1471 1469 1469 1468 1467 1466 1466 1465 1464 1463 1463 1462 1462 1461 1461 1460 1460 1461
1485 1484 1483 1482 1481 1481 1480 1479 1478 1478 1478 1477 1476 1475 1473 1472 1471 1469 1468 1467 1465 1464 1463 1463 1462 1462 1461 1460 1459 1459 1458 1458 1457 1457 1456 1456 1455 1455
1481 1480 1479 1478 1477 1477 1476 1475 1475 1474 1474 1473 1472 1470 1469 1467 1466 1465 1464 1462 1461 1460 1459 1458 1457 1457 1457 1456 1455 1454 1454 1453 1453 1452 1452 1451 1451 1451
1478 1476 1475 1474 1474 1473 1472 1472 1471 1471 1470 1469 1468 1466 1465 1464 1462 1461 1460 1458 1457 1456 1455 1454 1453 1452 1452 1451 1451 1450 1449 1449 1448 1448 1447 1447 1447 1447
1474 1473 1472 1472 1471 1470 1469 1469 1468 1467 1466 1465 1464 1462 1461 1460 1458 1457 1456 1455 1453 1452 1451 1450 1449 1448 1447 1447 1446 1445 1444 1444 1444 1443 1443 1443 1443 1443
1471 1470 1469 1468 1467 1467 1466 1465 1464 1464 1463 1462 1460 1459 1458 1456 1455 1454 1452 1451 1450 1448 1447 1446 1445 1443 1442 1441 1441 1440 1440 1439 1439 1439 1439 1439 1439 1439
1468 1467 1466 1465 1464 1463 1462 1462 1461 1460 1459 1458 1457 1456 1454 1453 1451 1450 1449 1447 1446 1444 1443 1442 1441 1439 1438 1436 1435 1435 1435 1434 1435 1435 1435 1435 1435 1436
1464 1464 1463 1462 1461 1460 1459 1458 1457 1456 1455 1454 1453 1452 1451 1449 1448 1446 1445 1443 1442 1440 1439 1438 1437 1435 1433 1432 1431 1430 1430 1430 1430 1430 1431 1431 1431 1432
1460 1460 1459 1458 1457 1456 1455 1455 1454 1453 1452 1451 1450 1449 1447 1446 1445 1443 1442 1440 1439 1437 1436 1434 1432 1431 1430 1429 1428 1426 1426 1426 1426 1427 1427 1428 1428 1429
1457 1456 1455 1455 1454 1453 1452 1451 1450 1450 1449 1448 1447 1446 1444 1443 1441 1440 1439 1437 1436 1434 1432 1431 1429 1428 1426 1425 1424 1423 1423 1422 1422 1422 1424 1425 1425 1425
1453 1452 1452 1451 1450 1449 1448 1447 1447 1446 1445 1445 1444 1443 1441 1440 1439 1437 1436 1434 1433 1431 1429 1427 1426 1425 1423 1422 1421 1420 1419 1419 1419 1420 1420 1420 1421 1422